Other Public Products
Issued by NWS Charleston, SC

Home | Current Version | Previous Version | Text Only | Print | Product List | Glossary On
Versions: 1 2 3 4 5 6 7 8 9 10 11 12 13 14 15 16 17 18 19 20 21 22 23 24 25 26 27 28 29 30 31 32 33 34 35 36 37 38 39 40 41 42 43 44 45 46 47 48 49 50
352
FPUS82 KCHS 291727
OPUCHS

TEST...KCHS/KSAV Gateway Observations...TEST
National Weather Service Charleston SC
100 PM EDT SAT APR 29 2017

NOTE: "fair" indicates few or no clouds below 12,000 feet with no
significant weather and/or obstructions to visibility.

SCZ050-WAZ558-NCZ071-TXZ119-213-PAZ071-DCZ001-FLZ074-172-MI076-
NYZ176-178-MAZ016-IL014-TNZ027-NJZ106-GAZ044-MD014-291800-

...Gateway Observations for Charleston International...

CITY           SKY/WX    TMP DP  RH WIND       PRES   REMARKS
Chas Airport   PTSUNNY   82  69  64 SW12      30.20F
Seattle        CLOUDY    48  41  76 SE5       30.28F
Charlotte      PTSUNNY   83  69  62 S5        30.20F
Dallas DFW     PTSUNNY   87  69  54 S26G35    29.57R HX  91
Dallas Love    CLOUDY    85  70  60 S25G33    29.58S
Philladelphia  CLOUDY    81  62  52 SW14      29.98F
Wash National  PTSUNNY   86  68  54 S15       30.05F
Baltimore      PTSUNNY   85  64  49 SW15G21   30.03F
Miami          PTSUNNY   87  69  54 SE14G25   30.13F HX  91
Detroit        CLOUDY    48  36  63 NE8       30.23R
Newark         CLOUDY    84  61  45 W16G23    29.94F
Laguardia      CLOUDY    83  60  45 W15G24    29.94F
J F K          PTSUNNY   77  66  68 SW18      29.97F
Boston Logan   CLOUDY    82  56  40 SW16G25   29.84F
Ft. Lauderdale PTSUNNY   83  70  64 E20       30.13F
Chicago O`Hare LGT RAIN  44  33  65 NE22G28   30.20R
Chicago Midway LGT RAIN  44  39  82 NE21      30.20R
Houston Bush   CLOUDY    84  74  71 S24G35    29.68S HAZE    HX  91
Houston Hobby  CLOUDY    82  75  79 S17G33    29.69R
Nashville      PTSUNNY   85  66  53 S15       30.01F
Atlanta        PTSUNNY   83  66  56 S14       30.15F

$$

GAZ044-118-TXZ119-213-NCZ071-DCZ001-MDZ014-506-PAZ021-071-NJZ106-
NYZ176-178-MAZ106-OHZ011-021-055-MIZ076-KYZ091-ILZ014-INZ047-
MNZ060-ONZ431-291800-

...Gateway Observations for Savannah International...

CITY           SKY/WX    TMP DP  RH WIND       PRES   REMARKS
Savannah Arpt  PTSUNNY   85  67  54 SE16      30.19F
Atlanta        PTSUNNY   83  66  56 S14       30.15F
Charlotte      PTSUNNY   83  69  62 S5        30.20F
Dallas DFW     PTSUNNY   87  69  54 S26G35    29.57R HX  91
Houston Bush   CLOUDY    84  74  71 S24G35    29.68S HAZE    HX  91
Wash National  PTSUNNY   86  68  54 S15       30.05F
Wash Dulles    CLOUDY    86  63  45 S10       30.06S
Baltimore      PTSUNNY   85  64  49 SW15G21   30.03F
Philadelphia   CLOUDY    81  62  52 SW14      29.98F
Newark         CLOUDY    84  61  45 W16G23    29.94F
Laguardia      CLOUDY    83  60  45 W15G24    29.94F
J F K          PTSUNNY   77  66  68 SW18      29.97F
Boston         CLOUDY    82  56  40 SW16G25   29.84F
Pittsburg      TSTM      65  63  93 W9        30.18R FOG
Akron          LGT RAIN  57  54  89 NE15      30.06F FOG
Cleveland      LGT RAIN  49  44  83 N7        30.20F
Cincinnati     CLOUDY    69  64  84 E7        30.10F
Columbus       CLOUDY    63  63  99 S5        30.13R
Detroit        CLOUDY    48  36  63 NE8       30.23R
Chicago O`Hare LGT RAIN  44  33  65 NE22G28   30.20R
Minneapolis    CLOUDY    51  24  34 NE14      30.27F
Indianapolis   CLOUDY    61  60  97 E8        30.04F
Toronto Canada PTSUNNY   54  36  50 N8        30.11S

$$




USA.gov is the U.S. government's official web portal to all federal, state and local government web resources and services.